EHI
0 0 0 0 0 0 0 0 0 0 0 0 0 0 0 0 0 0 0 0 0 0 0 0 0 0 0 0 0 0 0 0 0 0 0 0 0 0 0 0 0 0 0 0
0 0 0 0 0 0 0 0 0 0 0 0 0 0 0 0 0 0 0 0 0 0 0 0 0 0 0 0 0 0 0 0 0 0 0 0 0 0 0 0 0 0 0 0
0 0 0 0 0 0 0 0 0 0 0 0 0 0 0 0 0 0 0 0 0 0 0 0 0 0 0 0 0 0 0 0 0 0 0 0 0 0 0 0 0 0 0 0
0 0 0 0 0 0 0 0 0 0 0 0 0 0 0 0 0 0 0 0 0 0 0 0 0 0 0 0 0 0 0 0 0 0 0 0 0 0 0 0 0 0 0 0
0 0 0 0 0 0 0 0 0 0 0 0 0 0 0 0 0 0 0 0 0 0 0 0 0 0 0 0 0 0 0 0 0 0 0 0 0 0 0 0 0 0 0 0
0 0 0 0 0 0 0 0 0 0 0 0 0 0 0 0 0 0 0 0 0 0 0 0 0 0 0 0 0 0 0 0 0 0 0 0 0 0 0 0 0 0 0 0
0 0 0 0 0 0 0 0 0 0 0 0 0 0 0 0 0 0 0 0 0 0 0 0 0 0 0 0 0 0 0 0 0 0 0 0 0 0 0 0 0 0 0 0
0 0 0 0 0 0 0 0 0 0 0 0 0 0 0 0 0 0 0 0 0 0 0 0 0 0 0 0 0 0 0 0 0 0 0 0 0 0 0 0 0 0 0 0
0 0 0 0 0 0 0 0 0 0 0 0 0 0 0 0 0 0 0 0 0 0 0 0 0 0 0 0 0 0 0 0 0 0 0 0 0 0 0 0 0 0 0 0
0 0 0 0 0 0 0 0 0 0 0 0 0 0 0 0 0 0 0 0 0 0 0 0 0 0 0 0 0 0 0 0 0 0 0 0 0 0 0 0 0 0 0 0
0 0 0 0 0 0 0 0 0 0 0 0 0 0 0 0 0 0 0 0 0 0 0 0 0 0 0 0 0 0 0 0 0 0 0 0 0 0 0 0 0 0 0 0
0 0 0 0 0 0 0 0 0 0 0 0 0 0 0 0 0 0 0 0 0 0 0 0 0 0 0 0 0 0 0 0 0 0 0 0 0 0 0 0 0 0 0 0
0 0 0 0 0 0 0 0 0 0 0 0 0 0 0 0 0 0 0 0 0 0 0 0 0 0 0 0 0 0 0 0 0 0 0 0 0 0 0 0 0 0 0 0
0 0 0 0 0 0 0 0 0 0 0 0 0 0 0 0 0 0 0 0 0 0 0 0 0 0 0 0 0 0 0 0 0 0 0 0 0 0 0 0 0 0 0 0
0 0 0 0 0 0 0 0 0 0 0 0 0 0 0 0 0 0 0 0 0 0 0 0 0 0 0 0 0 0 0 0 0 0 0 0 0 0 0 0 0 0 0 0
0 0 0 0 0 0 0 0 0 0 0 0 0 0 0 0 0 0 0 0 0 0 0 0 0 0 0 0 0 0 0 0 0 0 0 0 0 0 0 0 0 0 0 0
0 0 0 0 0 0 0 0 0 0 0 0 0 0 0 0 0 0 0 0 0 0 0 0 0 0 0 0 0 0 0 0 0 0 0 0 0 0 0 0 0 0 0 0
0 0 0 0 0 0 0 0 0 0 0 0 0 0 0 0 0 0 0 0 0 0 0 0 0 0 0 0 0 0 0 0 0 0 0 0 0 0 0 0 0 0 0 0
0 0 0 0 0 0 0 0 0 0 0 0 0 0 0 0 0 0 0 0 0 0 0 0 0 0 0 0 0 0 0 0 0 0 0 0 0 0 0 0 0 0 0 0
0 0 0 0 0 0 0 0 0 0 0 0 0 0 0 0 0 0 0 0 0 0 0 0 0 0 0 0 0 0 0 0 0 0 0 0 0 0 0 0 0 0 0 0
0 0 0 0 0 0 0 0 0 0 0 0 0 0 0 0 0 0 0 0 0 0 0 0 0 0 0 0 0 0 0 0 0 0 0 0 0 0 0 0 0 0 0 0
0 0 0 0 0 0 0 0 0 0 0 0 0 0 0 0 0 0 0 0 0 0 0 0 0 0 0 0 0 0 0 0 0 0 0 0 0 0 0 0 0 0 0 0
0 0 0 0 0 0 0 0 0 0 0 0 0 0 0 0 0 0 0 0 0 0 0 0 0 0 0 0 0 0 0 0 0 0 0 0 0 0 0 0 0 0 0 0
0 0 0 0 0 0 0 0 0 0 0 0 0 0 0 0 0 0 0 0 0 0 0 0 0 0 0 0 0 0 0 0 0 0 0 0 0 0 0 0 0 0 0 0
0 0 0 0 0 0 0 0 0 0 0 0 0 0 0 0 0 0 0 0 0 0 0 0 0 0 0 0 0 0 0 0 0 0 0 0 0 0 0 0 0 0 0 0
0 0 0 0 0 0 0 0 0 0 0 0 0 0 0 0 0 0 0 0 0 0 0 0 0 0 0 0 0 0 0 0 0 0 0 0 0 0 0 0 0 0 0 0
0 0 0 0 0 0 0 0 0 0 0 0 0 0 0 0 0 0 0 0 0 0 0 0 0 0 0 0 0 0 0 0 0 0 0 0 0 0 0 0 0 0 0 0
Wind_Speed
6 5 7 7 9 10 11 11 11 10 12 15 11 8 7 6 4 4 4 5 7 8 8 8 8 8 8 8 8 8 8 7 7 5 4 4 3 3 3 3 4 4 4 5
4 5 6 5 7 10 11 9 10 8 12 12 8 5 6 6 5 6 6 6 6 6 7 9 10 9 9 9 8 8 8 7 6 5 4 4 3 3 3 3 4 4 5 6
4 2 3 7 11 12 8 9 10 13 16 8 5 7 8 7 6 7 6 5 5 6 7 8 8 9 9 9 8 8 7 6 5 5 4 4 3 3 3 4 4 5 5 6
5 5 8 10 5 10 10 9 11 9 9 7 8 6 5 5 6 6 4 4 4 4 4 4 5 6 7 7 8 7 6 6 5 5 4 3 3 4 4 3 4 5 6 7
5 5 7 9 6 8 9 10 10 12 11 5 2 0 4 4 4 4 3 2 2 2 3 5 6 7 8 7 6 6 6 5 5 4 4 3 4 5 4 3 5 5 6 7
6 6 8 9 4 5 6 7 8 10 10 6 6 2 5 2 3 2 2 2 3 4 5 5 5 7 8 7 6 6 5 5 4 4 4 4 5 4 3 4 5 6 6 7
6 5 9 9 3 7 6 10 4 7 7 9 9 6 2 3 3 3 3 3 4 5 5 5 6 7 7 6 5 4 4 3 3 3 4 4 4 3 4 4 5 6 8 8
6 5 10 6 9 10 10 3 3 5 6 8 6 3 3 3 3 4 4 4 5 5 5 4 5 7 6 5 3 3 3 3 2 3 3 3 3 4 4 4 6 7 7 8
11 10 6 7 9 6 4 5 5 5 5 7 6 5 4 3 4 4 4 4 4 6 6 4 4 5 5 3 3 3 2 2 2 3 3 3 4 5 4 4 5 6 6 8
4 8 6 6 4 4 6 5 4 5 6 8 6 6 5 4 4 4 4 4 4 6 6 4 3 3 3 3 3 3 2 2 2 3 4 4 3 4 4 5 6 6 7 8
5 6 3 5 9 8 5 4 4 4 5 6 7 6 6 5 5 5 4 4 4 5 5 4 3 3 3 3 3 2 2 3 3 4 4 5 5 5 6 6 7 8 7 7
9 9 8 8 6 8 8 7 7 7 5 4 5 6 6 5 5 5 5 4 4 4 4 3 3 2 2 2 2 2 2 3 3 3 4 4 5 6 10 13 17 19 19 17
7 5 6 2 2 6 7 7 6 7 7 6 4 5 6 5 4 5 5 5 5 4 4 3 2 1 1 1 2 3 4 4 4 4 4 5 5 6 8 10 14 17 19 21
4 5 4 4 4 5 6 6 6 6 5 5 5 5 6 5 5 6 5 4 4 4 3 2 1 1 2 1 2 3 4 6 6 4 5 5 6 6 7 9 10 8 11 17
7 5 4 4 6 6 6 7 8 6 5 5 5 6 7 7 6 5 4 4 4 3 2 1 1 3 2 2 3 4 4 4 4 5 5 6 6 7 7 9 10 10 9 10
6 5 5 6 7 7 7 7 8 7 6 5 6 5 6 6 6 5 4 4 3 2 1 1 3 3 3 3 3 4 4 9 9 5 5 6 6 7 8 9 10 10 10 9
10 8 7 7 8 7 6 6 8 8 7 7 6 7 7 7 6 4 3 2 1 1 2 3 4 4 4 4 4 4 4 7 12 8 6 6 7 8 8 9 9 10 9 11
8 9 9 10 10 9 7 7 7 8 7 7 7 7 6 6 4 2 1 1 1 2 3 4 4 4 4 5 4 4 5 5 6 7 7 7 8 8 8 9 10 11 10 11
6 7 8 8 9 9 9 8 8 7 7 8 7 6 5 4 3 2 1 1 2 4 4 4 7 6 5 7 8 5 6 7 8 7 7 12 11 8 8 9 10 10 10 10
7 8 10 10 9 9 10 9 9 8 7 7 7 6 4 3 2 1 0 2 3 4 5 6 6 5 6 7 11 5 6 8 8 8 8 8 9 9 8 9 10 10 10 10
10 11 12 12 11 10 9 9 9 8 6 6 6 5 3 1 1 0 1 3 4 4 5 9 6 5 6 8 12 6 6 7 8 8 8 8 9 9 9 10 10 11 10 10
10 11 12 12 12 10 7 7 8 8 7 6 5 4 2 1 1 2 3 4 5 8 6 4 5 9 13 15 6 6 6 7 8 7 7 8 9 9 10 10 10 10 10 10
10 11 11 11 11 10 8 7 7 6 6 4 3 2 1 1 1 2 4 3 4 9 8 5 11 18 20 10 5 6 7 8 8 8 8 8 9 9 10 11 10 10 10 10
11 11 11 10 9 10 8 5 5 5 4 3 2 1 0 2 2 2 3 8 12 13 7 11 18 20 19 6 5 6 7 8 8 9 9 9 9 9 9 10 10 10 10 11
11 10 9 9 8 6 6 5 5 4 3 2 1 1 1 2 3 4 4 6 11 13 7 11 18 19 11 7 7 8 8 9 10 10 9 9 9 9 10 10 10 10 10 10
8 7 6 6 5 5 4 3 3 2 1 2 2 2 2 2 4 4 4 6 8 13 9 7 8 11 8 8 9 9 9 10 11 10 10 10 11 11 10 10 12 11 10 10
8 7 6 6 4 4 3 3 2 1 1 2 3 3 3 4 4 5 6 6 7 7 7 7 7 7 8 9 9 9 9 9 9 10 10 10 10 10 10 11 11 10 10 10
Wind_Direction
201 179 163 186 193 185 196 203 207 228 233 251 253 253 263 270 270 255 241 222 211 208 202 194 190 187 183 177 170 164 163 170 180 179 178 183 197 213 225 236 247 256 267 273
207 200 188 209 212 199 213 220 229 249 262 252 250 243 253 255 252 252 248 235 221 210 200 197 193 187 180 175 170 163 167 175 171 169 176 191 207 218 236 254 264 266 268 272
205 180 141 243 216 196 201 206 194 220 241 250 242 239 240 243 237 238 244 237 221 211 206 201 193 182 179 172 159 161 165 166 167 170 182 200 210 224 246 259 263 271 271 271
145 129 217 238 217 193 202 223 210 222 240 234 228 237 239 225 219 232 236 230 221 208 200 185 166 158 151 148 154 158 159 163 167 173 190 203 217 241 253 254 259 266 270 272
143 189 260 287 245 182 189 245 219 220 238 238 197 19 287 229 205 210 212 202 195 178 159 145 146 145 139 141 145 150 162 170 176 179 193 211 235 251 255 257 266 266 268 272
141 169 222 240 232 160 130 262 241 202 218 192 141 172 259 209 163 147 116 115 121 118 116 127 134 135 135 142 148 166 175 177 177 181 197 222 240 254 253 254 265 274 275 270
155 196 248 246 173 123 161 237 238 187 191 168 183 197 192 121 112 112 105 105 114 115 118 131 135 132 134 143 167 172 157 160 176 194 213 231 244 249 261 269 277 278 279 277
151 181 245 211 148 181 211 209 175 176 173 175 187 152 130 128 126 123 116 113 119 117 114 118 131 132 136 156 159 141 145 165 197 220 235 241 248 264 266 270 279 282 283 284
182 204 224 178 194 208 176 184 191 179 178 165 166 173 161 153 148 141 137 132 124 125 119 114 126 133 141 154 142 140 152 198 232 248 251 248 249 264 273 269 270 278 280 285
213 252 242 227 233 222 196 197 191 177 163 161 167 169 164 159 158 153 145 140 132 130 129 128 127 122 136 144 144 147 188 235 249 259 269 265 254 250 256 262 267 272 277 282
222 258 278 255 223 211 194 186 164 152 161 166 161 163 167 169 168 162 149 140 139 142 142 144 138 132 137 145 145 169 224 249 259 258 263 270 262 250 256 245 250 267 271 271
208 210 193 225 216 182 177 185 175 158 150 152 162 164 158 161 159 152 147 139 136 136 138 142 141 140 148 157 163 192 245 259 258 263 266 265 273 281 271 271 280 281 284 285
200 190 184 213 170 170 177 177 166 162 157 150 149 148 145 142 144 140 137 139 144 145 142 141 141 159 203 199 196 219 245 261 263 262 265 269 272 279 290 291 284 285 288 290
172 137 163 196 187 166 149 136 125 116 117 127 130 127 126 123 129 135 140 142 134 128 129 138 160 236 246 233 236 249 256 269 272 261 263 265 268 270 276 287 295 290 286 290
192 185 178 148 124 123 123 123 121 123 120 110 115 126 131 134 138 135 126 120 116 116 124 148 251 271 274 260 258 263 266 265 264 260 260 262 266 270 274 278 283 289 291 290
163 143 135 142 149 144 140 142 142 147 139 130 127 128 127 123 120 114 112 116 120 142 210 254 268 271 277 271 271 270 266 280 287 275 266 269 270 274 279 281 283 286 288 291
145 164 170 170 170 167 165 159 152 147 140 136 135 128 120 115 110 106 99 89 106 212 253 259 268 280 280 271 265 265 265 277 289 289 275 275 275 276 277 279 282 284 284 288
182 178 172 167 165 157 146 136 133 134 135 134 127 123 123 125 128 128 105 56 16 317 282 264 269 280 276 273 269 264 267 269 270 272 276 277 279 275 276 279 282 284 286 290
153 147 144 141 141 138 134 130 127 122 120 124 123 121 116 114 115 115 86 18 320 300 290 287 303 302 286 283 291 268 269 276 279 278 278 285 289 281 279 281 283 284 287 289
120 119 117 114 112 118 122 121 118 113 114 117 114 108 102 99 100 91 342 277 255 253 269 287 290 280 278 280 294 275 272 277 281 284 284 283 284 285 283 284 285 285 286 286
119 117 115 112 106 103 112 118 118 114 110 110 113 116 115 103 84 25 296 292 283 273 281 295 296 286 287 288 293 280 276 280 284 286 287 288 288 287 287 286 287 288 288 287
116 116 114 113 109 101 95 100 107 108 104 99 98 101 97 49 327 294 258 254 276 301 304 284 283 293 300 302 291 283 283 285 288 288 285 285 286 287 287 287 286 286 286 284
111 111 110 110 110 105 93 89 95 102 103 103 102 99 96 274 273 285 298 287 289 303 306 287 298 305 308 309 294 290 289 289 288 287 285 283 282 282 283 284 284 284 284 284
107 104 104 104 104 102 96 89 87 88 90 86 82 75 297 302 294 257 261 301 310 310 303 300 308 310 315 310 297 291 288 287 285 283 282 281 281 281 282 284 285 285 284 283
106 105 106 105 100 100 105 102 90 81 73 54 1 320 286 258 270 289 291 294 305 311 303 306 311 314 313 297 293 290 288 284 285 287 283 285 285 285 284 283 282 283 283 283
102 100 95 94 101 107 106 101 93 75 47 2 331 312 302 290 285 289 293 294 294 307 308 301 299 303 298 293 292 290 289 291 293 291 286 285 284 284 284 284 283 283 283 283
94 95 95 89 81 87 93 92 88 58 11 336 314 310 313 312 308 305 303 303 303 302 300 299 297 294 294 293 292 291 291 290 289 288 288 287 287 286 286 285 285 285 285 284